Location: Strohbehn Observatory
(42.4649°N, 93.8239°W)
Time: 13:02:01
(UTC-05:00)

Daily predictions for brighter satellites

Satellite Brightness Start Highest point End
(mag) Time Altitude Azimuth Time Altitude Azimuth Time Altitude Azimuth
Cosmos 1844 4.4 21:03:08 10° SSE 21:08:13 33° ESE 21:13:21 10° NE
Cosmos 1844 Rocket 3.0 21:04:13 10° S 21:09:34 45° ESE 21:14:55 10° NE
ERS-1 Rocket 3.2 21:04:54 10° SSE 21:09:51 59° ENE 21:14:48 10° N
BREEZE-M DEB (TANK) 2.3 21:07:36 10° WSW 21:09:55 87° N 21:14:23 10° ENE
Cosmos 1674 Rocket 4.0 21:05:50 10° N 21:10:09 46° ENE 21:14:24 10° SSE
Cosmos 1408 4.4 21:08:08 10° ESE 21:10:18 15° E 21:12:27 10° NE
Meteor 1-10 Rocket 4.4 21:09:13 10° N 21:15:04 68° ENE 21:20:44 10° SSE
Cosmos 1452 Rocket 4.3 21:10:50 10° SSE 21:15:23 30° E 21:19:57 10° NE
Sich 1 Rocket 4.2 21:12:44 10° SSE 21:17:00 40° E 21:21:17 10° NNE
Cosmos 1190 Rocket 4.0 21:14:15 10° NNW 21:19:26 69° ENE 21:24:37 10° SSE
Cosmos 2082 Rocket 4.1 21:18:30 10° N 21:22:06 17° NE 21:25:40 10° E
Cosmos 1862 4.3 21:20:35 10° SSE 21:24:04 28° E 21:27:37 10° NNE
Cosmos 2263 Rocket 4.3 21:20:57 10° WSW 21:25:59 32° NW 21:31:01 10° N
Meteor 2-10 Rocket 4.0 21:20:38 10° NNW 21:26:26 74° W 21:32:05 10° S
Coronas F rocket 3.0 21:32:45 10° SSW 21:35:13 35° W 21:37:42 10° N
SL-08 ROCKET BODY 4.5 21:29:42 10° S 21:35:44 86° W 21:41:43 10° N
Cosmos 1356 Rocket 4.5 21:34:25 10° SSW 21:38:31 50° WNW 21:42:43 10° N
Cosmos 1975 Rocket 4.0 21:35:57 10° NNE 21:39:48 30° ENE 21:42:50 14° SE
Cosmos 1184 Rocket 4.0 21:39:00 14° SE 21:41:13 26° E 21:44:04 10° NE
CZ-4 SHROUD 4.1 21:41:31 16° SE 21:43:30 32° ENE 21:46:18 10° N
Meteor 1-27 Rocket 3.7 21:38:10 10° N 21:43:45 69° ENE 21:49:13 10° SSE
Cosmos 1606 2.7 21:43:05 10° N 21:47:02 70° E 21:50:39 12° SSE
TIMED 4.5 21:43:11 10° S 21:47:29 63° ESE 21:51:49 10° NNE
CENTAUR R/B 4.0 21:42:16 10° NW 21:49:42 46° WSW 21:57:28 10° S
Cosmos 676 Rocket 4.0 21:44:39 10° NNW 21:49:52 77° ENE 21:54:26 14° SSE
Cosmos 1908 Rocket 3.5 21:45:42 10° S 21:50:03 71° E 21:54:30 10° NNE
Cosmos 1782 3.3 21:46:05 10° NNW 21:50:03 61° W 21:54:02 10° S
PSLV R/B 3.5 21:50:17 20° SE 21:52:03 44° ENE 21:54:53 10° N
deb Chang Zheng 4 3.6 21:47:59 10° NNE 21:52:25 89° E 21:56:52 10° SSW
Cosmos 1733 Rocket 4.2 21:48:56 10° SSW 21:53:11 47° WNW 21:57:26 10° N
Cosmos 1378 Rocket 3.5 21:48:55 10° N 21:53:13 66° E 21:56:50 14° SSE
Cosmos 1174 3.0 21:50:28 10° NNW 21:53:45 84° ENE 21:55:34 22° SE
Cosmos 2056 Rocket 4.4 21:49:14 10° SW 21:54:15 51° WNW 21:59:15 10° N
Cosmos 1954 Rocket 4.1 21:50:07 10° NNW 21:55:19 67° ENE 21:59:23 17° SSE
Cosmos 2084 3.2 21:54:14 10° SSW 21:58:00 56° ESE 22:01:46 10° NE
Cosmos 1939 Rocket 3.5 21:55:16 10° S 21:59:02 53° W 22:02:53 10° NNW
Cosmos 2154 Rocket 4.0 21:54:52 10° S 22:01:06 84° E 22:07:19 10° N
USA 245 3.7 22:00:54 23° SE 22:02:30 39° ENE 22:06:14 10° N
COS B Rocket 3.2 21:58:50 10° N 22:03:00 88° W 22:06:28 12° S
Atlas Centaur 2 3.2 22:02:19 10° SSW 22:03:28 11° S 22:03:38 11° S
BREEZE-M TANK 4.3 21:43:02 10° W 22:04:04 75° N 22:08:25 10° ENE
SL-27 R/B 4.3 22:02:34 10° NW 22:05:46 29° WSW 22:08:53 10° SSW
BREEZE-M DEB (TANK) 3.5 22:04:19 10° WNW 22:06:05 24° N 22:08:16 10° NE
Cosmos 1238 Rocket 2.3 22:03:20 10° N 22:06:33 80° E 22:08:57 20° SSE
ISS -3.2 22:03:46 10° SW 22:06:55 50° SE 22:10:05 10° ENE
UNK 4.5 22:04:12 10° NNE 22:10:24 64° ESE 22:16:17 10° S
SPOT 5 3.2 22:06:18 13° S 22:11:06 79° WSW 22:16:30 10° NNW
Terra 3.3 22:09:02 16° E 22:11:12 22° ENE 22:14:50 10° NNE
MetOp-B 4.1 22:07:14 15° SSE 22:11:40 87° ENE 22:17:03 10° NNW
SL-8 R/B 4.5 22:07:53 10° W 22:12:37 53° NNW 22:17:20 10° ENE
COSMOS 2487 2.5 22:15:43 10° NNW 22:19:21 82° WSW 22:21:04 29° SSE
Cosmos 489 Rocket 4.4 22:13:27 10° NNW 22:19:41 81° ENE 22:23:53 22° SSE
H-2A R/B 3.2 22:15:42 10° S 22:19:46 40° W 22:23:46 10° NNW
Cosmos 1023 Rocket 4.4 22:17:20 10° NNW 22:22:28 78° ENE 22:25:25 26° SSE
BREEZE-M DEB 4.5 22:20:23 10° WSW 22:24:40 74° NNW 22:27:27 10° ENE
SL-08 RB Rocket 3.9 22:23:16 28° SE 22:25:33 58° ENE 22:30:07 10° N
APEX 3.6 22:24:54 26° S 22:26:53 51° ESE 22:31:41 10° NE
ARGOS 3.1 22:23:56 24° SSE 22:27:14 74° ENE 22:32:36 10° N
Envisat 4.2 22:23:48 10° SSW 22:28:30 38° W 22:33:13 10° NNW
ATLAS 5 CENTAUR R/B 4.2 22:23:58 10° WNW 22:28:45 24° WSW 22:33:44 10° SSW
Cosmos 2366 rocket 4.3 22:26:54 23° SSE 22:30:31 49° E 22:36:34 10° NNE
Elektron 3 4.0 22:29:42 10° NW 22:32:37 80° SW 22:33:55 38° SSE
GPS 2-05 Rocket1 4.4 22:31:37 10° SW 22:33:43 22° SSW 22:33:43 22° SSW
Cosmos 1420 Rocket 3.9 22:34:30 10° SSW 22:39:46 89° WNW 22:45:01 10° NNE
IGS 5A 4.4 22:39:52 30° E 22:40:47 33° ENE 22:44:33 10° N
YAOGAN 6 3.6 22:41:15 23° SSW 22:42:57 39° W 22:46:17 10° NNW
Cosmos 1825 3.8 22:40:13 10° SW 22:43:42 34° WNW 22:47:14 10° N
Cosmos 1408 4.3 22:41:54 10° SW 22:45:13 31° WNW 22:48:32 10° NNW
Okean 2 Rocket 3.6 22:42:49 14° SSW 22:46:29 58° W 22:50:50 10° N
H-2A R/B 2.3 22:44:16 33° SE 22:46:31 58° ENE 22:51:44 10° N
Cosmos 1833 Rocket 3.0 22:42:13 10° NNW 22:47:43 52° ENE 22:49:59 33° ESE
Cosmos 2278 Rocket 2.7 22:42:08 10° SW 22:47:43 60° WNW 22:53:22 10° NNE
Cosmos 614 Rocket 3.8 22:43:20 10° NNW 22:48:28 87° ENE 22:50:29 38° SSE
Meteor 1-14 Rocket 4.1 22:46:04 22° S 22:49:53 84° E 22:55:30 10° NNE
Cosmos 1242 Rocket 3.2 22:46:36 10° NNW 22:50:09 50° W 22:51:25 33° SSW
Cosmos 1140 Rocket 4.0 22:51:15 10° NNW 22:56:15 52° WSW 22:58:42 28° SSW
Cosmos 2218 Rocket 4.0 22:52:15 22° S 22:56:39 88° E 23:03:06 10° N
Intercosmos 25 4.1 22:57:20 21° SW 22:59:17 41° W 23:02:19 10° N
SPOT 1/Viking Rocket 4.3 22:58:58 23° SSW 23:01:55 47° W 23:06:58 10° NNW
CZ-4 R/B 3.9 22:58:49 10° N 23:03:30 71° WNW 23:06:05 26° SSW
Cosmos 1812 3.1 22:59:49 10° N 23:03:35 47° ENE 23:03:35 47° ENE
DELTA 2 DEB (DPAF) 4.1 23:03:00 48° S 23:04:14 84° WSW 23:08:43 10° NNW
AVUM R/B 4.2 23:01:04 10° NNW 23:04:19 40° NE 23:04:19 40° NE
Cosmos 2082 Rocket 2.1 23:01:16 10° NNW 23:07:00 89° WSW 23:08:58 43° SSE
CZ-4B R/B 4.2 23:03:09 10° N 23:07:57 49° WNW 23:12:03 13° SW
USA 234 3.2 23:02:42 10° NE 23:09:09 59° SE 23:15:34 10° SSW
Cosmos 1727 Rocket 3.9 23:05:40 10° N 23:11:53 90° ESE 23:14:25 38° S
CARTOSAT-1 3.5 23:18:48 63° SSW 23:19:25 77° WSW 23:23:46 10° NNW
SAR-Lupe-2 3.9 23:20:00 56° NE 23:20:00 56° NE 23:23:08 10° N
Cosmos 2297 4.1 23:16:03 10° SW 23:21:40 63° WNW 23:27:23 10° NNE
CZ-4C R/B 3.8 23:22:24 46° WSW 23:22:51 49° W 23:26:49 10° NNW
Gbstr 26 Del rocket 4.0 23:20:55 10° NW 23:25:40 43° NNE 23:27:04 32° ENE
Timation 1 Rocket 4.2 23:24:56 42° S 23:27:01 73° ESE 23:33:01 10° NNE
Meteor 2-19 Rocket 4.4 23:27:35 36° SSW 23:30:15 80° W 23:36:24 10° N
Cosmos 1536 Rocket 4.1 23:26:10 10° NNW 23:30:32 52° W 23:31:22 45° SW
Cosmos 1536 4.5 23:40:02 24° NE 23:40:02 24° NE 23:42:13 10° NNE
Cosmos 1400 Rocket 4.2 23:40:45 29° ENE 23:40:45 29° ENE 23:43:21 10° NNE
DMSP B5D2-2 4.3 23:35:47 10° N 23:40:57 66° WNW 23:42:47 39° SW
ISS -1.2 23:40:37 10° W 23:43:29 28° NNW 23:46:23 10° NE
Cosmos 1821 Rocket 4.1 23:46:40 52° SE 23:47:41 59° E 23:53:47 10° NNE
Terra 2.6 23:47:55 39° WSW 23:48:40 42° W 23:53:12 10° NNW
Meteor 1-19 Rocket 4.3 23:46:04 10° N 23:51:54 65° ENE 23:52:42 58° ESE
